CW0565 Weather Reports


time (UTC)temp
C
wind
direction
speed
KPH
gust
KPH
rain 1hr
cm
rain 24hr
cm
rain mn
cm
humidity
%
barometer
mb
20260508103026 12 165 9.7 22.5 0.00 0.00 0.00 44 1022.2
20260508100010 12 175 17.7 27.4 0.00 0.00 0.00 34 1022.1
20260508094509 12 201 11.3 19.3 0.00 0.00 0.00 39 1022.0
20260508093011 11 153 9.7 22.5 0.00 0.00 0.00 45 1022.0
20260508091514 11 134 6.4 17.7 0.00 0.00 0.00 50 1021.9
20260508090010 11 162 9.7 16.1 0.00 0.00 0.00 50 1021.9
20260508084509 11 168 9.7 17.7 0.00 0.00 0.00 45 1021.8
20260508083009 11 205 1.6 8.0 0.00 0.00 0.00 48 1021.8
20260508081511 11 233 0.0 9.7 0.00 0.00 0.00 47 1021.7
20260508074509 8 192 8.0 11.3 0.00 0.00 0.00 52 1021.7
20260508073013 8 198 3.2 11.3 0.00 0.00 0.00 50 1021.6
20260508071510 8 355 0.0 3.2 0.00 0.00 0.00 65 1021.5
20260508070010 9 360 0.0 1.6 0.00 0.00 0.00 62 1021.5
20260508064510 10 355 0.0 1.6 0.00 0.00 0.00 55 1021.3
20260508063010 8 355 0.0 4.8 0.00 0.00 0.00 60 1021.3
20260508061510 7 355 0.0 1.6 0.00 0.00 0.00 63 1021.2
20260508060012 6 355 0.0 4.8 0.00 0.00 0.00 64 1021.1
20260508054518 5 355 0.0 4.8 0.00 0.00 0.00 68 1021.1
20260508053010 4 355 0.0 8.0 0.00 0.00 0.00 71 1021.0
20260508051511 3 355 0.0 8.0 0.00 0.00 0.00 76 1020.7
20260508050012 2 355 1.6 8.0 0.00 0.00 0.00 79 1020.8
20260508044510 2 355 1.6 8.0 0.00 0.00 0.00 81 1020.8
20260508041514 1 355 1.6 6.4 0.00 0.00 0.00 81 1020.5
20260508040009 1 355 3.2 9.7 0.00 0.00 0.00 82 1020.4
20260508034511 1 355 0.0 9.7 0.00 0.00 0.00 82 1020.2
20260508033013 1 355 3.2 14.5 0.00 0.00 0.00 82 1020.1
20260508031512 1 355 3.2 9.7 0.00 0.00 0.00 83 1020.1
20260508030009 1 360 1.6 8.0 0.00 0.00 0.00 84 1019.9
20260508024510 1 5 6.4 12.9 0.00 0.00 0.00 85 1019.8
20260508023009 0 360 4.8 9.7 0.00 0.00 0.00 85 1019.8
20260508021510 0 360 1.6 8.0 0.00 0.00 0.00 85 1019.7
20260508020009 1 5 4.8 8.0 0.00 0.00 0.00 84 1019.6
20260508014509 0 5 1.6 9.7 0.00 0.00 0.00 84 1019.6
20260508013012 1 5 6.4 9.7 0.00 0.00 0.00 84 1019.4
20260508011509 1 5 1.6 9.7 0.00 0.00 0.00 84 1019.4
20260508010021 1 5 3.2 8.0 0.00 0.00 0.00 84 1019.4
20260508004518 1 5 1.6 8.0 0.00 0.00 0.00 84 1019.5
20260508003011 1 5 1.6 9.7 0.00 0.00 0.00 83 1019.5
20260508001509 1 11 3.2 9.7 0.00 0.00 0.00 83 1019.4
20260508000009 1 19 3.2 9.7 0.00 0.00 0.00 82 1019.4
20260507234509 1 25 1.6 9.7 0.00 0.00 0.00 82 1019.4
20260507233010 1 35 1.6 4.8 0.00 0.00 0.00 81 1019.5
20260507231511 1 35 0.0 8.0 0.00 0.00 0.00 81 1019.5
20260507230010 1 40 3.2 9.7 0.00 0.00 0.00 80 1019.4
20260507224514 2 42 4.8 8.0 0.00 0.00 0.00 79 1019.4
20260507223010 2 43 3.2 8.0 0.00 0.00 0.00 78 1019.4
20260507221502 2 44 1.6 6.4 0.00 0.00 0.00 77 1019.3
20260507220009 3 45 0.0 4.8 0.00 0.00 0.00 76 1019.2
20260507214513 3 46 0.0 4.8 0.00 0.00 0.00 74 1019.3
20260507213009 3 47 3.2 6.4 0.00 0.00 0.00 72 1019.1
20260507211509 4 148 0.0 3.2 0.00 0.00 0.00 71 1019.2
20260507210010 5 150 0.0 3.2 0.00 0.00 0.00 69 1019.0
20260507204510 5 150 0.0 0.0 0.00 0.00 0.00 67 1018.8
20260507203010 6 150 0.0 0.0 0.00 0.00 0.00 65 1018.8
20260507201512 6 150 0.0 0.0 0.00 0.00 0.00 63 1018.7
20260507200010 7 150 0.0 0.0 0.00 0.00 0.00 60 1018.7
20260507194510 7 150 0.0 0.0 0.00 0.00 0.00 58 1018.5
20260507193009 7 150 0.0 9.7 0.00 0.00 0.00 54 1018.4
20260507191510 8 160 6.4 14.5 0.00 0.00 0.00 51 1018.2
20260507190010 8 134 4.8 12.9 0.00 0.00 0.00 49 1018.2
20260507184509 8 153 8.0 16.1 0.00 0.00 0.00 42 1018.1
20260507183021 8 155 6.4 16.1 0.00 0.00 0.00 42 1017.9
20260507181509 9 151 11.3 20.9 0.00 0.00 0.00 36 1017.7
20260507180009 9 157 12.9 22.5 0.00 0.00 0.00 36 1017.6
20260507174512 10 156 6.4 17.7 0.00 0.00 0.00 40 1017.4
20260507173010 10 148 11.3 17.7 0.00 0.00 0.00 33 1017.2
20260507171510 10 162 12.9 17.7 0.00 0.00 0.00 33 1017.2
20260507170010 10 168 14.5 19.3 0.00 0.00 0.00 31 1017.2
20260507164509 10 142 11.3 19.3 0.00 0.00 0.00 33 1017.2
20260507163011 10 135 12.9 24.1 0.00 0.00 0.00 35 1017.2
20260507161510 11 112 9.7 20.9 0.00 0.00 0.00 36 1017.1
20260507160022 11 131 8.0 22.5 0.00 0.00 0.00 38 1017.2
20260507154513 11 97 11.3 17.7 0.00 0.00 0.00 40 1017.3
20260507153009 10 150 17.7 25.7 0.00 0.00 0.00 40 1017.2
20260507151509 10 187 17.7 27.4 0.00 0.00 0.00 38 1017.2
20260507150009 10 139 16.1 27.4 0.00 0.00 0.00 37 1017.1
20260507144512 11 153 14.5 24.1 0.00 0.00 0.00 39 1017.1
20260507143012 11 149 20.9 33.8 0.00 0.00 0.00 37 1017.1
20260507140009 11 158 19.3 27.4 0.00 0.00 0.00 39 1017.1
20260507134510 11 154 20.9 32.2 0.00 0.00 0.00 41 1017.1
20260507133012 11 132 11.3 27.4 0.00 0.00 0.00 40 1017.1
20260507131509 11 155 22.5 30.6 0.00 0.00 0.00 35 1017.1
20260507130022 11 153 16.1 30.6 0.00 0.00 0.00 37 1017.1
20260507123010 10 148 9.7 24.1 0.00 0.00 0.00 36 1016.9
20260507121509 11 138 14.5 22.5 0.00 0.00 0.00 36 1016.9
20260507120009 11 150 17.7 30.6 0.00 0.00 0.00 37 1016.9
20260507114510 11 167 12.9 24.1 0.00 0.00 0.00 36 1016.8
20260507113014 11 171 11.3 35.4 0.00 0.00 0.00 34 1016.9
20260507110024 10 168 14.5 20.9 0.00 0.00 0.00 30 1017.0
20260507104510 10 189 8.0 25.7 0.00 0.00 0.00 31 1016.8